www.pogodaiklimat.ru

Погода и климат >> Архив погоды >> Индия >> Орисса >> Пури


ПОГОДА в Пури

  • Прогноз погоды в Пури
  • Монитор погоды в Пури

АРХИВ ПОГОДЫ в Пури

Время (UTC), дата Ветер
(напр.,м/с)
 
Видим.   Явления Облачность Т
(С)
Тd
(С)
f
(%)
Тe
(С)
Тes
(С)
Комфортность P
(гПа)
Po
(гПа)
Тmin
(С)
Tmax
(С)
R
(мм)
R24
(мм)
S
(см)
00 14.09 ЮЗ 3 4000 м 10/5 600 м
[Sc Ac trans Ci fib]
+27.8 +26.1 90 +42 +42 опасность
перегрева
1006.7 1006.0
03 14.09 ЮЗ 2 4000 м 6/3 600 м
[Sc Ac trans Ci fib]
1008.4 1007.7 +26.4
06 14.09 ЮЗ 2 4000 м 6/3 600 м
[Sc Ac trans Ci fib]
1007.8 1007.1
09 14.09 ЮЗ 2 4000 м 6/4 600 м
[Sc Ac trans Ci fib]
1004.9 1004.2
12 14.09 ЮЗ 2 4000 м 8/4 600 м
[Sc Ac trans Ci fib]
1005.0 1004.3 +33.2
15 14.09 ЮЗ 2 4000 м 8/4 600 м
[Sc Ac trans Ci fib]
+29.4 +26.6 85 +45 +45 опасность
перегрева
1007.3 1006.6
18 14.09 ЮЗ 2 4000 м 8/4 600 м
[Sc Ac trans Ci fib]
+29.0 +26.5 86 +44 +44 опасность
перегрева
1007.1 1006.4
21 14.09 ЮЗ 2 4000 м 8/4 600 м
[Sc Ac trans Ci fib]
+28.8 +26.3 86 +44 +44 опасность
перегрева
1006.1 1005.4
00 15.09 ЮЗ 2 4000 м 8/4 600 м
[Sc Ac trans Ci fib]
+28.6 +26.4 88 +44 +44 опасность
перегрева
1006.1 1005.4
03 15.09 ЮЗ 2 4000 м 8/4 600 м
[Sc Ac trans Ci fib]
1007.2 1006.5 +26.8
06 15.09 ЮЗ 2 4000 м 5/3 600 м
[Sc Ac trans Ci fib]
1007.0 1006.3
09 15.09 ЮЗ 4 4000 м 4/3 600 м
[Sc Ac trans]
1003.9 1003.2
12 15.09 ЮЗ 5 4000 м 8/4 600 м
[Sc Ac trans Ci fib]
1004.2 1003.5 +33.2
15 15.09 ЮЗ 2 4000 м 5/3 600 м
[Sc Ac trans]
+29.2 +26.1 83 +44 +44 опасность
перегрева
1006.0 1005.3
18 15.09 ЮЗ 4 4000 м 5/3 600 м
[Sc Ac trans]
+29.0 +26.2 85 +44 +44 опасность
перегрева
1006.3 1005.6
21 15.09 ЮЗ 4 4000 м 6/4 600 м
[Sc Ac trans]
+28.8 +26.3 86 +44 +44 опасность
перегрева
1004.9 1004.2
00 16.09 ЮЗ 4 4000 м 8/4 600 м
[Sc Ac trans Ci fib]
+28.8 +26.6 88 +45 +45 опасность
перегрева
1005.1 1004.4
03 16.09 ЮЗ 3 4000 м 8/4 600 м
[Sc Ac trans Ci fib]
1006.1 1005.4 +27.0
06 16.09 ЮЗ 4 4000 м 6/3 600 м
[Sc Ac trans Ci fib]
1005.8 1005.1
09 16.09 ЮЗ 4 4000 м сильная пыльная буря {метель} 8/8 600 м
[]
1002.5 1001.8
12 16.09 ЮЗ 4 4000 м 8/4 600 м
[Sc Ac trans Ci fib]
1002.5 1001.8 +33.6
15 16.09 Ю 3 4000 м 4/3 600 м
[Sc Ac trans]
+29.8 +26.2 81 +45 +45 опасность
перегрева
1004.9 1004.2
18 16.09 ЮЗ 3 4000 м 6/4 600 м
[St Ac trans]
+29.6 +26.2 82 +45 +45 опасность
перегрева
1005.9 1005.2
21 16.09 Ю 4 4000 м 4/3 600 м
[Sc Ac trans]
+29.2 +26.1 83 +44 +44 опасность
перегрева
1004.3 1003.6
00 17.09 Ю 3 4000 м 8/5 300 м
[St Ac trans]
+29.0 +25.6 82 +43 +43 опасность
перегрева
1004.7 1004.0
03 17.09 ЮЗ 2 4000 м 8/4 600 м
[Sc Ac trans Ci fib]
1005.9 1005.2 +27.0
06 17.09 ЮЗ 3 4000 м 9/5 600 м
[Sc Ac trans Ci fib]
1006.7 1006.0
09 17.09 Ю 2 4000 м 8/4 600 м
[Sc Ac trans Ci fib]
1004.7 1004.0
12 17.09 Ю 3 4000 м 8/4 600 м
[Sc Ac trans Ci fib]
1004.4 1003.7 +33.2
15 17.09 ЮЗ 3 4000 м 5/3 600 м
[Sc Ac trans]
+30.0 +24.6 73 +43 +43 опасность
перегрева
1006.9 1006.2
18 17.09 ЮЗ 2 4000 м 5/4 600 м
[Sc Ac trans]
+29.4 +25.4 79 +43 +43 опасность
перегрева
1006.4 1005.7
21 17.09 ЮЗ 2 4000 м 6/4 600 м
[Sc Ac trans]
+29.0 +25.3 80 +42 +42 опасность
перегрева
1005.3 1004.6
00 18.09 штиль 0 4000 м слаб. дождь 10/5 300 м
[Sc Ac As]
+27.4 +25.7 90 +40 +40 очень
душно
1006.2 1005.5 8
03 18.09 В 2 4000 м 9/5 600 м
[Sc Ac trans Ci fib]
1008.3 1007.6 +25.5 8
06 18.09 В 2 4000 м {дождь} 9/5 600 м
[St Ac trans Ci fib]
1008.6 1007.9 0.8
09 18.09 ЮВ 2 4000 м {дождь} 5/3 600 м
[Sc Ac trans Ci fib]
1006.3 1005.6 2
12 18.09 В 2 4000 м {дождь} 5/3 600 м
[Sc Ac trans Ci fib]
1006.1 1005.4 +32.0 2
15 18.09 ЮВ 3 4000 м 10/5 300 м
[St Ac trans Ci fib]
+29.8 +25.6 78 +44 +44 опасность
перегрева
1008.7 1008.0 2
18 18.09 В 3 4000 м {дождь} 10/5 300 м
[St Ac As]
+29.6 +25.4 78 +43 +43 опасность
перегрева
1009.0 1008.3 7
21 18.09 В 2 4000 м 10/5 300 м
[St Ac As]
+28.0 +25.7 87 +41 +41 опасность
перегрева
1007.7 1007.0 7
00 19.09 В 2 4000 м {дождь} 10/5 300 м
[St Ac As]
+28.0 +25.7 87 +41 +41 опасность
перегрева
1008.1 1007.4 11
03 19.09 ЮВ 2 4000 м {дождь} 6/4 600 м
[Sc Ac trans Ci fib]
1010.0 1009.3 +25.8 12
06 19.09 Ю 2 4000 м {дождь} 6/4 600 м
[Sc Ac trans Ci fib]
1009.4 1008.7
09 19.09 ЮЗ 2 4000 м 6/5 600 м
[Sc diur, vesp Ac trans]
1007.2 1006.5
12 19.09 ЮЗ 3 4000 м 6/5 600 м
[Sc diur, vesp Ci fib]
1007.1 1006.4 +33.0
15 19.09 Ю 3 4000 м {дождь} 6/4 600 м
[Sc Ac trans]
+29.8 +25.9 80 +45 +45 опасность
перегрева
1009.3 1008.6 0.8
18 19.09 Ю 2 4000 м {дождь} 6/4 600 м
[Sc Ac trans]
+29.6 +25.7 80 +44 +44 опасность
перегрева
1009.3 1008.6 0.8
21 19.09 Ю 2 4000 м 6/4 600 м
[Sc Ac trans]
+29.4 +25.4 79 +43 +43 опасность
перегрева
1007.8 1007.1 0.8
00 20.09 ЮЗ 1 4000 м 8/5 600 м
[Sc diur, vesp Ac trans]
+29.2 +25.8 82 +44 +44 опасность
перегрева
1007.8 1007.1 0.8
03 20.09 ЮЗ 1 4000 м 5/4 600 м
[Sc diur, vesp Ac trans]
1010.3 1009.6 +27.4 0.8
06 20.09 ЮЗ 1 4000 м 4/4 600 м
[Sc diur, vesp]
1009.4 1008.7
09 20.09 ЮЗ 2 4000 м 8/5 600 м
[Sc diur, vesp Ac trans]
1006.7 1006.0
12 20.09 ЮЗ 2 4000 м 9/5 600 м
[Sc diur, vesp Ac trans Ci fib]
1006.4 1005.7 +33.4
15 20.09 Ю 1 4000 м 4/3 600 м
[Sc Ac trans]
+30.2 +25.7 77 +45 +45 опасность
перегрева
1008.1 1007.4
18 20.09 ЮВ 1 4000 м 6/4 600 м
[Sc Ac trans]
+30.0 +26.1 80 +45 +45 опасность
перегрева
1008.4 1007.7

 

Местоположение метеостанции Пури (Орисса, Индия): широта 19.80 долгота 85.82 высота над уровнем моря 6 м.

В архиве по умолчанию представлена погода в Пури за последнюю неделю. Архивные данные за месяц целиком и за предыдущие месяцы, начиная с января 2011 года, Вы можете получить, выбрав интересующий диапазон дат из раскрывающегося списка и нажав кнопку "Ввод!".


*Определитесь, кто Вы:
робот инопланетянин человек

Внимание! Время в таблицах - всемирное. Для получения местного времени необходимо прибавить поправку, которая равна 5.5 ч.

Смотрите также архив погоды в соседних городах и на ближайших метеорологических станциях:

Погода в Бхубанешваре (Орисса, Индия) (50 км)
Погода в Каттаке (Орисса, Индия) (75 км)
Погода в Парадипе (Орисса, Индия) (106 км)
Погода в Гопалпере (Орисса, Индия) (115 км)
Погода в Ангуле (Орисса, Индия) (137 км)
Погода в Чандбали (Орисса, Индия) (145 км)
Погода в Пхулбани (Орисса, Индия) (179 км)
Погода в Кендуджхаре (Орисса, Индия) (205 км)
Погода в Баласоре (Орисса, Индия) (223 км)
Погода в Калингапатнаме (Андхра-Прадеш, Индия) (241 км)

Пояснения к столбцам:

Ветер - указаны скорость ветра в м/с - средняя за 10 мин, порывы в срок и между сроками (в фигурных скобках) и направление, откуда дует ветер: С - северный, СВ - северо-восточный, В - восточный, ЮВ - юго-восточный, Ю - южный, ЮЗ - юго-западный, З - западный, СЗ - северо-западный.
Видимость - горизонтальная дальность видимости в метрах или километрах. При видимости от 1 до 10 км при отсутствии осадков обычно наблюдается дымка, при ухудшении видимости до 1 км и менее - туман. В сухую погоду видимость может ухудшаться дымом, пылью или мглою.
Явления - указаны атмосферные явления, наблюдавшиеся в срок или в последний час перед сроком; фигурными скобками обозначены явления, наблюдавшиеся между сроками (за 1-3 часа до срока); квадратными скобками обозначены град или гололедные отложения с указанием их диаметра в мм.
Облачность - указаны через наклонную черту общая и нижняя облачность в баллах и высота нижней границы облаков в метрах; квадратными скобками обозначены формы облаков: Ci - перистые, Cs - перисто-слоистые, Cc - перисто-кучевые, Ac - высококучевые, As - высокослоистые, Sc - слоисто-кучевые, Ns - слоисто-дождевые, Cu - кучевые, Cb - кучево-дождевые. Подробнее классификацию облаков см. в Атласе облаков (PDF).
T - Температура воздуха - температура, измеренная на высоте 2 м над землей.
Td - Температура точки росы - температура, при понижении до которой содержащийся в воздухе водяной пар достигнет насыщения.
f - Относительная влажность воздуха - влажноcть воздуха, измеренная на высоте 2 м над землей.
Te - Эффективная температура - температура, которую ощущает одетый по сезону человек в тени. Характеристика душности погоды. При расчете учитывается влияние влажности воздуха и скорости ветра на теплоощущения человека.
Tes - Эффективная температура на солнце - температура, которую ощущает человек, с поправкой на солнечный нагрев. Характеристика знойности погоды. Зависит от высоты солнца над горизонтом, облачности и скорости ветра. Ночью, в пасмурную погоду, а также при ветре 12 м/с и более поправка равна нулю.
P - Атмосферное давление - приведенное к уровню моря атмосферное давление.
Po - Атмосферное давление - измеренное на уровне метеостанции атмосферное давление.
Tmin - Минимальная температура - минимум температуры воздуха на высоте 2 м над землей.
Tmax - Максимальная температура - максимум температуры воздуха на высоте 2 м над землей.
R - Количество осадков - Количество выпавших осадков за период времени, мм. При наведении курсора мыши на число - период времени, за который выпало указанное количество осадков.
R24 - Количество осадков - Количество выпавших осадков за 24 часа, мм.
S - Снежный покров - Высота снежного покрова, см. При наведении курсора мыши на число - состояние снежного покрова и степень покрытия местности в баллах.